Date String (YYYY-MM-DD hh:mm:ss) UTC,Instrument flags,absolute air pressure of the measurement (hPa),sample flow rate (lpm),inlet stack bypass flow (lpm),air temperature of the measurement (°C),ambient temperature measured by the external sensor (°C),aerosol sample conditioner tube jacket temperature (°C),OPC LED temperature (°C),internal box temperature (°C),relative humidity of the measurement (%),span deviation,mass concentration of particles derived from Lorenz-Mie calculation of OPC scattering (μg/m³),mass concentration of particles derived from Lorenz-Mie calculation of OPC scattering (μg/m³),mass concentration of particles derived from Lorenz-Mie calculation of OPC scattering (μg/m³)
DateTimeUTC,F1_M11,P_M11,Q1_M11,Q2_M11,T1_M11,T2_M11,T3_M11,T4_M11,T5_M11,U1_M11,ZSPAN_M11,X0_M11,X2_M11,X1_M11
2023-08-12 06:00:00,SystemResetWarning,0831.7,5.00,000.00,029.4,028.3,000.0,037.8,031.1,23.4,0000.0,0006.91,0003.59,0003.03
2023-08-12 06:01:00,SystemResetWarning,0831.7,4.99,000.00,029.4,027.7,000.0,037.8,031.0,23.5,0000.0,0006.87,0003.56,0003.01
2023-08-12 06:02:00,SystemResetWarning,0831.7,5.00,000.00,029.3,025.9,000.0,037.6,030.6,23.6,0000.0,0006.78,0003.55,0003.01
2023-08-12 06:03:00,SystemResetWarning,0831.7,5.02,000.00,029.2,025.4,000.0,037.5,030.4,23.3,0000.0,0007.14,0003.53,0002.99
2023-08-12 06:04:00,SystemResetWarning,0831.7,5.00,000.00,029.1,025.6,000.0,037.6,030.3,23.9,0000.0,0007.71,0003.54,0002.98
2023-08-12 06:05:00,SystemResetWarning,0831.7,4.99,000.00,029.1,025.9,000.0,037.6,030.4,23.5,0000.0,0007.53,0003.49,0002.96
2023-08-12 06:06:00,SystemResetWarning,0831.7,5.00,000.00,029.1,026.3,000.0,037.6,030.5,23.1,0000.0,0007.53,0003.45,0002.94
2023-08-12 06:07:00,SystemResetWarning,0831.7,5.00,000.00,029.1,026.7,000.0,037.6,030.6,23.3,0000.0,0007.80,0003.47,0002.92
2023-08-12 06:08:00,SystemResetWarning,0831.7,5.00,000.00,029.1,027.0,000.0,037.7,030.7,23.1,0000.0,0007.95,0003.49,0002.90
2023-08-12 06:09:00,SystemResetWarning,0831.7,5.00,000.00,029.1,027.2,000.0,037.7,030.8,22.9,0000.0,0007.84,0003.45,0002.88
2023-08-12 06:10:00,SystemResetWarning,0831.9,5.00,000.00,029.1,027.5,000.0,037.7,030.8,22.5,0000.0,0007.81,0003.44,0002.89
2023-08-12 06:11:00,SystemResetWarning,0831.9,5.00,000.00,029.2,027.6,000.0,037.7,030.9,22.2,0000.0,0007.76,0003.44,0002.88
2023-08-12 06:12:00,SystemResetWarning,0831.9,5.01,000.00,029.2,027.8,000.0,037.7,030.9,24.1,0000.0,0007.77,0003.45,0002.89
2023-08-12 06:13:00,SystemResetWarning,0831.8,5.00,000.00,029.3,027.9,000.0,037.7,031.0,25.9,0000.0,0007.80,0003.45,0002.89
2023-08-12 06:14:00,SystemResetWarning,0831.8,4.99,000.00,029.3,028.1,000.0,037.8,031.0,26.5,0000.0,0007.64,0003.43,0002.90
2023-08-12 06:15:00,SystemResetWarning,0831.8,4.99,000.00,029.3,028.2,000.0,037.8,031.1,26.3,0000.0,0007.03,0003.43,0002.93
2023-08-12 06:16:00,SystemResetWarning,0831.8,5.00,000.00,029.4,028.2,000.0,037.8,031.1,26.4,0000.0,0007.83,0003.45,0002.94
2023-08-12 06:17:00,SystemResetWarning,0832.2,5.00,000.00,029.4,028.3,000.0,037.8,031.1,26.2,0000.0,0007.67,0003.49,0002.96
2023-08-12 06:18:00,SystemResetWarning,0832.2,5.00,000.00,029.4,028.3,000.0,037.9,031.2,24.8,0000.0,0007.47,0003.48,0002.97
2023-08-12 06:19:00,SystemResetWarning,0832.2,4.99,000.00,029.4,027.0,000.0,037.8,031.0,26.1,0000.0,0007.32,0003.47,0002.98
2023-08-12 06:20:00,SystemResetWarning,0832.0,5.01,000.00,029.4,025.6,000.0,037.6,030.7,26.1,0000.0,0007.78,0003.50,0003.00
2023-08-12 06:21:00,SystemResetWarning,0831.8,5.01,000.00,029.3,025.5,000.0,037.6,030.6,26.1,0000.0,0008.02,0003.53,0003.03
2023-08-12 06:22:00,SystemResetWarning,0831.8,4.99,000.00,029.2,025.7,000.0,037.6,030.5,26.4,0000.0,0007.99,0003.52,0003.06
2023-08-12 06:23:00,SystemResetWarning,0831.7,4.99,000.00,029.2,026.1,000.0,037.7,030.6,26.4,0000.0,0008.24,0003.54,0003.09
2023-08-12 06:24:00,SystemResetWarning,0832.0,5.00,000.00,029.1,026.5,000.0,037.7,030.7,26.4,0000.0,0008.71,0003.54,0003.08
2023-08-12 06:25:00,SystemResetWarning,0832.2,5.00,000.00,029.2,026.8,000.0,037.7,030.7,26.5,0000.0,0008.99,0003.57,0003.07
2023-08-12 06:26:00,SystemResetWarning,0832.2,5.01,000.00,029.2,027.1,000.0,037.7,030.8,26.4,0000.0,0008.92,0003.56,0003.06
2023-08-12 06:27:00,SystemResetWarning,0832.0,5.00,000.00,029.2,027.4,000.0,037.7,030.9,26.3,0000.0,0008.26,0003.52,0003.05
2023-08-12 06:28:00,SystemResetWarning,0832.1,4.99,000.00,029.2,027.6,000.0,037.8,030.9,26.1,0000.0,0008.25,0003.53,0003.05
2023-08-12 06:29:00,SystemResetWarning,0832.0,5.00,000.00,029.3,027.8,000.0,037.8,031.0,26.0,0000.0,0008.72,0003.51,0003.05
2023-08-12 06:30:00,SystemResetWarning,0832.0,5.00,000.00,029.3,027.9,000.0,037.8,031.0,26.0,0000.0,0008.83,0003.51,0003.04
2023-08-12 06:31:00,SystemResetWarning,0832.2,5.00,000.00,029.3,028.1,000.0,037.8,031.1,26.1,0000.0,0008.68,0003.53,0003.05
2023-08-12 06:32:00,SystemResetWarning,0831.8,5.01,000.00,029.4,028.2,000.0,037.8,031.1,26.1,0000.0,0008.35,0003.51,0003.03
2023-08-12 06:33:00,SystemResetWarning,0832.1,5.01,000.00,029.4,028.3,000.0,037.9,031.1,26.0,0000.0,0008.45,0003.50,0003.01
2023-08-12 06:34:00,SystemResetWarning,0832.3,5.00,000.00,029.4,028.3,000.0,037.9,031.2,26.0,0000.0,0008.85,0003.45,0002.97
2023-08-12 06:35:00,SystemResetWarning,0832.1,4.99,000.00,029.5,027.9,000.0,037.9,031.1,25.8,0000.0,0008.33,0003.42,0002.95
2023-08-12 06:36:00,SystemResetWarning,0831.7,4.99,000.00,029.4,026.1,000.0,037.7,030.8,25.7,0000.0,0007.88,0003.36,0002.90
2023-08-12 06:37:00,SystemResetWarning,0831.7,5.00,000.00,029.3,025.4,000.0,037.6,030.6,25.5,0000.0,0007.78,0003.35,0002.88
2023-08-12 06:38:00,SystemResetWarning,0831.7,5.00,000.00,029.2,025.5,000.0,037.6,030.4,25.6,0000.0,0008.09,0003.37,0002.91
2023-08-12 06:39:00,SystemResetWarning,0831.7,5.01,000.00,029.2,025.9,000.0,037.7,030.5,25.7,0000.0,0008.22,0003.40,0002.97
2023-08-12 06:40:00,SystemResetWarning,0831.7,4.99,000.00,029.1,026.3,000.0,037.7,030.6,25.9,0000.0,0007.83,0003.45,0003.04
2023-08-12 06:41:00,SystemResetWarning,0831.6,5.00,000.00,029.1,026.6,000.0,037.7,030.7,26.0,0000.0,0007.60,0003.47,0003.10
2023-08-12 06:42:00,SystemResetWarning,0831.7,5.00,000.00,029.1,026.9,000.0,037.7,030.7,25.7,0000.0,0007.72,0003.47,0003.13
2023-08-12 06:43:00,SystemResetWarning,0831.6,4.99,000.00,029.2,027.2,000.0,037.7,030.8,25.4,0000.0,0008.11,0003.50,0003.16
2023-08-12 06:44:00,SystemResetWarning,0831.7,4.99,000.00,029.2,027.4,000.0,037.8,030.8,24.4,0000.0,0008.65,0003.53,0003.18
2023-08-12 06:45:00,SystemResetWarning,0831.7,5.00,000.00,029.2,027.6,000.0,037.8,030.9,24.1,0000.0,0008.40,0003.59,0003.22
2023-08-12 06:46:00,SystemResetWarning,0831.7,5.01,000.00,029.2,027.8,000.0,037.8,030.9,23.9,0000.0,0008.38,0003.64,0003.26
2023-08-12 06:47:00,SystemResetWarning,0831.7,5.00,000.00,029.3,027.9,000.0,037.8,031.0,23.5,0000.0,0008.51,0003.73,0003.31
2023-08-12 06:48:00,SystemResetWarning,0831.7,5.00,000.00,029.3,028.0,000.0,037.8,031.0,23.4,0000.0,0008.56,0003.78,0003.35
2023-08-12 06:49:00,SystemResetWarning,0831.7,4.99,000.00,029.3,028.1,000.0,037.8,031.1,23.5,0000.0,0008.23,0003.78,0003.36
2023-08-12 06:50:00,SystemResetWarning,0831.7,4.99,000.00,029.4,028.2,000.0,037.8,031.1,23.7,0000.0,0008.07,0003.77,0003.36
2023-08-12 06:51:00,SystemResetWarning,0831.7,4.99,000.00,029.4,028.2,000.0,037.9,031.1,23.8,0000.0,0008.04,0003.75,0003.35
2023-08-12 06:52:00,SystemResetWarning,0831.7,5.00,000.00,029.4,028.3,000.0,037.9,031.1,24.0,0000.0,0008.07,0003.76,0003.34
2023-08-12 06:53:00,SystemResetWarning,0831.7,5.00,000.00,029.5,028.3,000.0,037.9,031.2,24.0,0000.0,0008.35,0003.75,0003.33
2023-08-12 06:54:00,SystemResetWarning,0831.7,4.99,000.00,029.5,027.3,000.0,037.9,031.0,24.0,0000.0,0008.04,0003.73,0003.32
2023-08-12 06:55:00,SystemResetWarning,0831.7,5.01,000.00,029.4,025.6,000.0,037.7,030.7,24.0,0000.0,0008.16,0003.73,0003.32
2023-08-12 06:56:00,SystemResetWarning,0831.6,5.02,000.00,029.3,025.3,000.0,037.6,030.6,24.1,0000.0,0007.61,0003.73,0003.33
2023-08-12 06:57:00,SystemResetWarning,0831.6,5.00,000.00,029.2,025.6,000.0,037.7,030.4,24.1,0000.0,0007.63,0003.72,0003.34
2023-08-12 06:58:00,SystemResetWarning,0831.7,5.00,000.00,029.2,025.9,000.0,037.7,030.5,24.0,0000.0,0007.78,0003.70,0003.34
2023-08-12 06:59:00,SystemResetWarning,0831.6,5.00,000.00,029.1,026.3,000.0,037.7,030.6,23.9,0000.0,0007.96,0003.68,0003.33
